User: anonymous   Login
Location: Unspecified
(0.0000°N, 0.0000°E)
Time: 17:18:34
(UTC+00:00)
Language:

COSMOS 2463 - Orbit

View from above orbital plane
View from above orbital plane
View from above satellite
View from above satellite

Ground track
Ground track

The orbit data is extracted from the following two-line orbital elements,

1 36519U 10017A   17295.91259290 +.00000023 +00000-0 +96732-5 0  9991
2 36519 082.9635 050.3322 0034878 253.9194 105.8119 13.71417067374979
Epoch (UTC): 22 October 2017 21:54:08
Eccentricity: 0.0034878
inclination: 82.9635°
perigee height: 969 km
apogee height: 1020 km
right ascension of ascending node: 50.3322°
argument of perigee: 253.9194°
revolutions per day: 13.71417067
mean anomaly at epoch: 105.8119°
orbit number at epoch: 37497

The dashed part of the orbit path shows where the satellite is in the earth's shadow,  

DLR